Location: Unspecified
(43.4354°N, 0.0000°E)
Time: 21:49:35
(UTC+00:00)

S-56A Canister/Altair - Pass Details

Date: 29 June 2019
Orbit: 632 x 2500 km, 38.9° (Epoch: 17 July)

Event Time Altitude Azimuth Distance (km) Brightness Sun altitude
Rises 13:42:55 0° 238° (WSW) 5,994 12.5 61.2°
Reaches altitude 10° 13:47:14 10° 235° (SW) 4,819 12.2 60.6°
Maximum altitude 13:59:43 55° 163° (SSE) 2,046 10.6 58.7°
Drops below altitude 10° 14:08:16 10° 89° (E) 3,371 10.6 57.3°
Sets 14:10:46 0° 84° (E) 4,122 11.0 56.9°
